IRIDIUM 33 DEB, 34648

Orbit data source: Space-Track

IRIDIUM 33 DEB, 34648 is space debris in LEO originally from a launch on Sun, 14 Sep 1997 UTC launched from the Tyuratam Missile And Space Complex (TTMTR). The debris from Iridium 33, an American commercial communications satellite, has been tracked extensively since its accidental collision with the defunct Russian satellite Cosmos 2251 in 2009. This event, occurring at high speed in low Earth orbit (LEO), generated thousands of pieces of space debris, significantly increasing the risk of further collisions. The Iridium 33 debris cloud has impacted space traffic management and orbital debris mitigation strategies, making it a subject of ongoing study in space situational awareness.

Loading next visibility...
Identifier
34648, 1997-051JZ
Orbit
LEO
Country
Flag of USUS
Related business
Manufacturer
Unknown
Mission
Spacecraft
Bus & Motor
Unknown
Mass
Unknown
Launch date (UTC)
1997-09-14 (28 years ago)
Launch vehicle
Unknown
Launch site
Tyuratam Missile And Space Complex (TTMTR)
Object type
Payload
Rocket body
Debris
Shape & HBR
Unknown shape, 0.1 m
Radar Cross Section
Small (<0.1 m²)

Expand to show TLE details & history
Last TLE update: 17 hours ago

TLE from 17 hours ago
0 IRIDIUM 33 DEB
1 34648U 97051JZ  25305.26494799  .00009105  00000-0  43750-2 0  9998
2 34648  86.3896 298.6617 0188068  66.7497 295.3362 14.09928709843763
Epoch: 2025-11-01T06:21Z
TLE epoch observation values (Epoch: 2025-11-01T06:21:31.506Z)
Latitude
-0.00004°
Longitude
162.48291°
Altitude
806.488 km
Speed
7.479 km/s
True Right ascension
19h 54m 38s
True Declination
0° 00' 00"
Sunlit
Object was in daylight at epoch
Visualization orbit readout
Latitude
Unknown
Longitude
Unknown
Altitude
Unknown
Speed
Unknown
Apparent Right ascension
Unknown
Apparent Declination
Unknown
Sunlit
N/A
Visualization observer readout
Local Sidereal Time
19:28:46
Azimuth
Unknown
Elevation
Unknown
Doppler factor
Unknown
Orbital elements
Apogee altitude
992.676 km
Perigee altitude
720.551 km
Semi-major axis
7,234.75 km
Eccentricity
0.01881
Inclination
86.3896°
RAAN
298.6617°
Arg. of periapsis
66.7497°
True anomaly
293.36899°
Mean anomaly
295.3362°
Eccentric anomaly
294.35454°
Mean motion
3.52702 °/min
Orbital period
102.07 mins
BSTAR
0.004375
Loading maneuver chart data...
Computing Atmospheric mass density...

Documentation

Showing up to 5 results
|